Location: *
(10.4782°N, 67.2163°W)
Time: 21:24:38
(UTC+00:00)

Feng Yun 1-1 Rocket - Pass Details

Date: 23 May 2024
Orbit: 829 x 933 km, 99.1° (Epoch: 23 June)

Event Time Altitude Azimuth Distance (km) Brightness Sun altitude
Exits shadow 00:30:37 55° 100° (E) 1,096 4.4 -24.4°
Maximum altitude 00:31:11 57° 76° (ENE) 1,071 4.4 -24.5°
Drops below altitude 10° 00:36:57 10° 358° (N) 2,629 7.1 -25.8°
Sets 00:39:25 0° 355° (N) 3,576 7.9 -26.3°
